Wind_Speed
23 23 22 21 20 19 18 16 15 14 13 13 14 16 20 23 28 31 34 38 40 42 44 45 46 45 44 42 42 41 39 39 38 37 38 39 37 37 36 36 34 32 31
24 24 23 23 22 21 19 17 16 15 13 13 13 14 17 19 22 26 30 34 37 40 43 44 45 45 45 44 42 40 40 40 40 39 38 39 39 38 38 36 36 35 34
25 25 25 24 23 22 21 19 17 16 14 13 12 13 14 17 19 22 26 29 33 36 39 42 42 44 45 43 42 40 40 40 41 41 39 39 39 39 39 38 37 35 34
26 26 26 25 24 23 22 20 19 18 16 15 12 12 12 14 16 19 23 27 30 33 35 37 39 40 42 43 42 41 40 39 39 40 39 39 39 40 38 37 37 36 35
27 27 26 26 26 25 23 21 20 19 18 16 13 11 10 12 14 16 19 22 26 29 32 34 34 36 38 39 39 39 39 39 39 39 38 38 38 38 38 38 37 36 34
27 27 27 27 27 26 25 23 21 20 18 16 13 11 10 9 10 12 14 18 21 25 27 30 32 34 35 36 37 37 37 38 38 39 39 38 38 38 38 37 36 35 33
28 28 28 28 27 27 26 25 23 21 19 17 15 12 10 8 8 10 11 14 17 20 24 26 28 30 32 33 34 34 35 35 36 37 37 38 37 37 36 35 34 32 30
28 28 28 28 28 28 27 26 25 23 21 19 17 14 11 9 7 8 9 11 13 16 20 23 25 27 29 30 31 32 33 33 34 34 34 35 36 35 35 34 32 30 28
28 28 28 28 28 29 28 27 26 24 23 21 19 15 13 10 8 7 7 8 10 13 15 19 22 24 26 27 29 30 31 31 33 33 33 33 33 32 32 32 31 29 26
27 28 28 28 28 28 28 27 26 26 24 23 20 17 14 11 9 6 4 5 7 9 12 14 18 20 23 25 26 27 28 28 29 29 28 28 28 28 27 26 26 26 25
26 27 28 28 28 28 28 27 27 27 26 24 21 18 15 12 10 7 4 3 4 6 9 11 14 17 19 22 23 24 25 26 26 26 26 25 23 23 23 23 23 23 22
25 26 27 27 28 28 28 27 27 27 26 25 23 20 17 13 10 8 6 4 1 2 5 8 11 14 16 17 18 19 20 21 21 22 22 22 22 22 22 21 21 21 20
24 25 25 26 26 27 27 27 26 26 26 25 23 21 18 15 12 10 8 6 4 3 4 6 8 10 12 14 15 16 18 18 19 20 20 20 21 21 20 20 19 19 19
24 25 25 25 25 26 26 25 25 25 25 24 23 21 19 17 14 12 10 8 7 6 5 6 7 9 10 12 13 15 17 17 17 18 19 19 19 19 19 18 18 18 18
24 24 24 24 24 24 24 24 24 24 23 23 21 20 18 17 15 13 11 10 8 8 7 6 7 8 9 10 12 13 15 15 15 16 17 18 18 18 17 17 18 18 17
25 24 24 24 24 23 23 23 22 22 21 21 19 18 17 16 14 13 11 9 8 7 6 6 7 8 9 10 11 12 13 13 13 15 15 16 17 17 17 17 17 16 16
26 25 25 24 24 23 23 22 21 20 19 18 17 16 15 14 13 12 11 9 8 7 6 6 6 7 8 9 10 10 11 13 14 15 16 16 16 16 16 16 16 15 15
28 27 26 25 24 23 23 22 21 20 18 17 16 14 13 12 11 10 9 8 7 6 6 6 6 7 8 8 9 10 10 11 13 14 15 16 16 16 15 15 15 14 14
30 29 28 27 26 25 23 22 21 20 18 17 15 13 12 11 9 8 6 6 5 4 4 4 5 6 7 8 8 9 10 11 12 13 14 15 15 15 15 15 14 13 13
32 31 30 29 28 26 25 24 23 21 19 17 15 13 12 10 8 7 6 4 3 2 2 3 4 5 6 7 8 9 10 10 11 12 13 13 13 13 13 13 13 12 12
36 34 33 32 30 29 28 26 25 23 21 19 17 15 13 11 10 8 7 5 3 2 1 2 3 4 6 7 8 9 10 10 11 12 12 12 12 12 12 12 12 11 11
39 38 36 35 33 32 31 29 28 26 24 22 20 18 16 14 13 11 9 8 7 6 5 5 6 6 7 8 8 9 10 11 11 11 12 12 12 12 12 12 12 11 11
43 42 40 39 37 36 34 33 31 30 28 26 24 22 20 18 17 15 14 12 11 10 10 10 9 9 9 10 10 10 11 11 12 12 12 12 13 13 13 13 12 12 13
47 46 45 43 42 40 39 37 36 34 32 30 29 27 25 23 21 20 18 17 15 14 13 13 13 12 12 12 12 13 13 13 13 13 13 13 13 14 14 14 14 14 14
50 50 49 48 47 45 44 42 40 39 37 35 33 31 30 28 26 24 23 21 20 19 18 17 16 16 16 15 15 15 15 15 15 15 15 15 15 15 15 15 15 15 15
53 53 53 52 52 50 49 47 45 43 42 40 38 36 34 32 30 29 27 26 25 23 22 21 21 20 20 19 19 19 19 18 18 18 18 17 17 17 17 17 18 18 18
Wind_Direction
6 3 0 357 353 349 344 337 328 321 309 294 275 261 249 243 239 237 236 234 232 231 229 228 227 229 230 231 231 229 229 230 231 233 234 236 238 240 243 246 247 250 254
8 6 4 1 358 355 352 346 338 330 321 306 291 273 259 250 244 239 236 234 232 231 230 229 229 229 229 231 230 228 229 229 231 233 235 236 237 238 240 244 247 249 252
8 7 5 4 2 360 357 353 348 339 330 319 303 284 269 257 250 244 238 235 232 231 230 229 229 230 229 229 230 229 228 229 231 232 235 236 237 238 240 242 245 247 249
8 7 6 5 3 1 359 355 351 346 338 327 315 295 279 265 254 247 242 237 234 234 233 231 230 230 229 229 230 230 230 230 231 233 234 235 237 238 239 240 242 244 246
9 8 7 5 4 3 1 358 354 350 346 339 329 312 289 273 261 254 246 239 235 234 233 233 232 231 230 230 231 231 230 230 231 230 232 233 236 237 238 240 240 241 243
10 10 9 7 7 7 6 3 360 357 354 349 341 328 310 291 271 256 249 242 238 236 233 232 231 232 230 230 232 233 232 231 230 231 232 233 234 236 239 239 240 240 242
10 11 11 10 9 9 9 9 7 5 3 359 354 343 328 308 284 267 257 247 243 238 235 232 230 232 233 232 232 232 233 235 235 235 235 235 237 237 238 238 238 238 239
10 10 11 12 12 12 12 11 11 9 7 4 360 353 344 330 309 284 264 254 245 239 235 233 231 230 230 230 229 231 233 234 234 235 234 234 235 235 234 233 235 236 238
8 9 10 11 12 12 12 12 11 11 9 7 4 0 354 345 332 307 278 257 245 238 232 229 230 229 228 227 227 229 231 233 232 233 233 232 230 229 230 231 233 236 237
5 7 8 9 10 11 11 11 11 10 9 8 7 6 3 359 351 333 302 267 245 238 231 225 223 224 223 223 225 228 229 229 228 227 226 224 222 222 225 227 231 233 236
1 3 5 6 7 8 9 10 10 11 11 11 11 10 10 10 11 9 352 321 261 234 227 222 216 216 218 218 221 223 223 222 223 222 220 218 216 217 220 223 226 228 231
355 357 360 2 4 5 7 8 9 10 12 14 14 13 14 17 21 21 18 16 9 193 197 203 203 207 207 208 211 212 211 211 213 213 212 212 212 213 215 216 218 223 226
349 352 354 357 359 2 4 6 8 10 11 14 16 18 19 21 25 30 33 38 51 110 157 177 182 185 188 194 196 198 199 202 203 203 204 206 208 209 210 214 216 219 220
342 345 348 351 354 357 360 3 6 8 10 13 16 19 23 26 32 40 45 52 65 84 115 147 161 169 171 179 184 189 193 194 195 196 199 202 205 208 211 215 214 214 213
333 337 340 343 346 350 354 358 1 5 9 12 15 18 22 26 34 42 50 57 67 76 94 116 142 155 165 172 179 182 184 185 188 189 192 196 199 202 203 205 207 207 209
325 328 331 334 338 342 346 350 354 358 3 8 13 17 21 26 33 41 47 56 65 79 94 115 134 143 153 164 170 176 180 183 184 186 187 190 194 195 197 199 200 203 206
319 320 322 325 328 332 336 340 344 348 353 360 5 10 15 21 28 33 39 47 57 71 89 112 130 141 146 154 163 172 179 184 186 185 185 187 190 191 193 194 196 198 201
313 314 314 315 318 321 324 328 333 337 340 345 352 358 4 10 16 23 29 37 48 63 82 107 121 137 148 154 160 164 169 175 178 181 183 184 188 191 193 194 196 200 205
306 307 308 308 309 310 313 316 320 324 327 329 333 340 347 353 356 2 11 23 35 53 78 108 132 143 150 157 161 164 166 171 174 178 183 186 189 191 194 197 201 205 209
299 300 301 301 302 302 303 304 306 310 313 316 316 318 322 326 331 334 340 349 3 29 76 119 142 153 158 164 170 172 173 175 177 179 182 184 187 190 194 199 203 206 208
293 293 293 294 295 295 295 295 296 297 298 301 302 302 302 303 303 303 301 299 295 280 236 188 175 175 177 178 178 179 181 184 185 187 187 188 190 193 196 199 201 204 208
288 288 287 287 287 287 287 287 287 287 287 287 288 289 288 286 284 281 278 274 267 257 246 232 222 213 207 202 199 197 196 195 194 195 196 197 199 201 203 205 207 212 215
285 284 283 281 280 280 280 280 279 279 278 277 277 276 276 275 273 271 267 262 259 254 248 241 235 228 221 214 209 205 203 202 201 201 202 205 208 210 212 214 218 223 226
282 280 278 276 275 274 273 273 273 272 271 270 270 269 268 267 265 263 261 259 255 251 247 242 238 233 228 223 219 217 215 213 212 214 215 217 218 220 222 226 229 231 233
279 277 275 273 271 269 267 266 266 266 265 264 263 263 262 261 260 258 256 254 253 250 246 243 240 237 234 231 228 224 223 222 222 223 225 226 227 229 232 234 236 238 241
277 274 271 269 267 265 263 262 261 260 260 259 258 258 257 257 256 255 253 252 250 248 246 244 242 240 238 236 235 233 232 232 232 233 234 235 236 237 239 241 243 245 247
Height
5780 5775 5770 5766 5761 5756 5752 5748 5745 5742 5739 5738 5736 5736 5737 5738 5740 5743 5747 5751 5755 5760 5766 5772 5777 5782 5788 5793 5797 5802 5807 5812 5817 5821 5825 5829 5833 5837 5840 5843 5846 5848 5850
5781 5776 5771 5765 5760 5755 5751 5747 5743 5740 5737 5734 5733 5732 5732 5733 5734 5736 5739 5742 5747 5751 5757 5762 5768 5773 5779 5784 5788 5793 5798 5803 5808 5813 5817 5821 5825 5829 5832 5835 5838 5841 5843
5782 5777 5771 5766 5760 5755 5750 5745 5741 5737 5734 5731 5729 5728 5727 5728 5728 5730 5732 5735 5739 5743 5748 5753 5758 5763 5769 5774 5779 5784 5789 5794 5799 5804 5808 5812 5816 5820 5824 5827 5830 5833 5835
5783 5777 5772 5766 5760 5755 5750 5745 5740 5736 5732 5728 5726 5724 5723 5723 5723 5724 5726 5729 5732 5736 5740 5745 5750 5755 5761 5766 5771 5775 5780 5785 5790 5795 5799 5803 5807 5811 5815 5819 5822 5825 5827
5784 5778 5772 5767 5761 5755 5749 5744 5739 5734 5730 5726 5723 5720 5719 5719 5719 5720 5721 5723 5726 5729 5733 5738 5742 5747 5752 5757 5762 5767 5771 5777 5781 5786 5790 5794 5799 5803 5807 5810 5814 5817 5819
5785 5779 5773 5767 5761 5755 5749 5743 5738 5733 5728 5724 5721 5718 5716 5715 5715 5715 5716 5718 5720 5723 5726 5730 5735 5739 5744 5749 5754 5759 5764 5768 5773 5778 5782 5786 5790 5795 5799 5802 5806 5809 5812
5786 5781 5775 5769 5762 5756 5750 5744 5738 5733 5728 5724 5720 5717 5715 5713 5712 5712 5713 5714 5715 5718 5721 5724 5728 5732 5737 5742 5746 5751 5756 5761 5766 5770 5774 5779 5783 5787 5791 5794 5798 5801 5804
5788 5782 5776 5770 5764 5758 5751 5745 5739 5734 5729 5724 5720 5716 5714 5712 5710 5709 5709 5710 5711 5713 5715 5718 5722 5726 5730 5735 5739 5744 5749 5753 5758 5763 5767 5771 5775 5779 5783 5787 5790 5794 5797
5789 5784 5778 5772 5766 5760 5753 5747 5741 5736 5730 5725 5720 5716 5713 5710 5708 5707 5707 5707 5708 5709 5711 5714 5717 5720 5724 5729 5733 5738 5742 5746 5750 5755 5759 5762 5766 5771 5775 5779 5783 5787 5790
5791 5785 5779 5773 5767 5761 5755 5749 5743 5737 5731 5726 5721 5716 5713 5710 5708 5706 5705 5704 5705 5706 5707 5709 5712 5715 5719 5723 5727 5732 5736 5740 5744 5748 5752 5756 5760 5764 5768 5773 5777 5781 5784
5791 5786 5780 5775 5769 5763 5757 5751 5745 5739 5733 5727 5722 5717 5713 5710 5708 5706 5704 5703 5703 5704 5705 5707 5709 5712 5715 5719 5722 5726 5730 5734 5738 5742 5747 5751 5755 5759 5763 5767 5772 5775 5779
5792 5787 5781 5776 5770 5765 5759 5753 5747 5742 5736 5730 5724 5719 5715 5711 5709 5706 5705 5704 5703 5703 5704 5705 5707 5710 5712 5715 5719 5722 5726 5730 5734 5738 5743 5747 5751 5756 5759 5763 5767 5770 5774
5792 5787 5782 5777 5772 5766 5761 5755 5750 5744 5738 5733 5727 5722 5717 5714 5710 5708 5706 5705 5704 5704 5704 5705 5707 5709 5711 5714 5717 5720 5724 5727 5731 5735 5740 5744 5748 5752 5756 5759 5763 5766 5770
5791 5787 5782 5778 5773 5768 5763 5757 5752 5747 5741 5736 5731 5726 5721 5717 5713 5711 5709 5708 5707 5706 5706 5707 5708 5709 5711 5714 5716 5719 5723 5726 5730 5734 5737 5741 5745 5749 5753 5756 5759 5763 5766
5790 5786 5782 5778 5773 5769 5764 5759 5754 5749 5744 5739 5734 5730 5725 5721 5718 5715 5713 5711 5710 5709 5709 5709 5710 5711 5713 5715 5717 5719 5722 5726 5729 5732 5735 5739 5743 5746 5750 5754 5757 5760 5764
5788 5784 5780 5777 5773 5769 5765 5760 5756 5752 5747 5742 5738 5733 5729 5726 5722 5720 5717 5715 5714 5713 5713 5712 5713 5714 5715 5716 5718 5720 5723 5726 5728 5731 5734 5738 5741 5745 5748 5751 5755 5758 5761
5784 5781 5778 5775 5771 5768 5764 5760 5757 5753 5749 5745 5741 5737 5733 5730 5727 5724 5722 5720 5718 5717 5716 5715 5716 5716 5717 5718 5720 5721 5723 5726 5728 5731 5734 5738 5741 5744 5747 5750 5753 5756 5759
5780 5777 5774 5772 5769 5766 5763 5759 5756 5753 5750 5746 5743 5739 5736 5733 5730 5728 5725 5723 5721 5720 5719 5719 5718 5719 5719 5720 5721 5723 5724 5726 5729 5731 5734 5737 5740 5743 5746 5749 5752 5755 5757
5774 5772 5769 5767 5765 5762 5760 5757 5754 5752 5749 5746 5743 5740 5738 5735 5732 5730 5728 5726 5724 5723 5722 5721 5721 5721 5722 5722 5723 5724 5726 5727 5730 5732 5734 5737 5740 5742 5745 5748 5750 5753 5755
5767 5765 5763 5761 5759 5757 5755 5753 5751 5749 5747 5744 5742 5740 5737 5735 5733 5731 5729 5727 5726 5725 5724 5723 5723 5723 5723 5724 5725 5726 5727 5729 5730 5732 5735 5737 5739 5742 5744 5746 5749 5751 5753
5758 5757 5755 5754 5753 5751 5749 5748 5746 5745 5743 5741 5739 5738 5736 5734 5732 5731 5730 5728 5727 5726 5725 5724 5724 5724 5724 5725 5725 5726 5727 5729 5731 5732 5734 5736 5739 5741 5743 5745 5747 5749 5751
5746 5746 5745 5744 5743 5742 5741 5740 5740 5738 5737 5736 5735 5734 5733 5731 5730 5729 5728 5727 5726 5725 5725 5724 5724 5724 5724 5725 5725 5726 5727 5729 5730 5732 5733 5735 5737 5739 5741 5743 5745 5747 5748
5733 5733 5733 5732 5732 5732 5731 5731 5730 5730 5730 5729 5728 5728 5727 5727 5726 5725 5724 5724 5723 5723 5723 5722 5722 5722 5723 5723 5724 5725 5726 5727 5729 5730 5732 5733 5735 5737 5739 5740 5742 5744 5745
5718 5718 5718 5718 5718 5718 5719 5719 5719 5720 5720 5720 5720 5720 5720 5720 5720 5720 5719 5719 5719 5719 5719 5719 5719 5720 5720 5721 5722 5722 5723 5725 5726 5728 5729 5731 5732 5734 5735 5737 5738 5740 5741
5702 5701 5701 5701 5702 5703 5704 5704 5706 5707 5708 5708 5709 5710 5710 5711 5712 5712 5712 5713 5713 5713 5714 5714 5715 5715 5716 5717 5718 5719 5720 5721 5723 5724 5725 5727 5728 5730 5731 5733 5734 5735 5736
5682 5682 5682 5682 5683 5684 5686 5688 5690 5691 5693 5695 5696 5698 5699 5700 5701 5702 5703 5704 5705 5706 5707 5708 5709 5710 5711 5712 5713 5714 5715 5717 5718 5719 5721 5722 5723 5725 5726 5727 5729 5730 5731